Regional Weather Roundup
Issued by NWS

Home | Current Version | Previous Version | Graphics & Text | Print | Product List | Glossary On
Versions: 1 2 3 4 5 6 7 8 9 10 11 12 13 14 15 16 17 18 19 20 21 22 23 24 25 26 27 28 29 30 31 32 33 34 35 36 37 38 39 40 41 42 43 44 45 46 47 48 49 50
000
ASUS43 KIND 200509
RWRIN

WEATHER ROUNDUP FOR INDIANA
NATIONAL WEATHER SERVICE INDIANAPOLIS IN
100 AM EDT FRI OCT 20 2017

NOTE: "FAIR" INDICATES FEW OR NO CLOUDS BELOW 12,000 FEET WITH NO
SIGNIFICANT WEATHER AND/OR OBSTRUCTIONS TO VISIBILITY.

* - STATION DOES NOT REPORT WEATHER SUCH AS PRECIPITATION OR FOG.

+ - STATION NOT QUALITY CONTROLLED BY THE NATIONAL WEATHER SERVICE.
    USE DATA WITH CAUTION...ESPECIALLY DEWPOINT AND RELATIVE
    HUMIDITY OBSERVATIONS.

INZ001>003-010>013-019-020-200600-
NORTHWEST INDIANA

CITY           SKY/WX    TMP DP  RH WIND       PRES   REMARKS
GARY /AIRPORT/ FAIR      56  32  39 SE6       30.17S
KNOX *+        FAIR      46  37  71 SE5       30.19S
LA PORTE +     FAIR      44  41  87 CALM      30.20S
MICHIGAN CITY+ FAIR      43  43 100 CALM      30.19S
MONTICELLO +   FAIR      52  51  95 CALM      30.19S
RENSSELAER +   FAIR      52  37  58 E3        30.19S
VALPARAISO     FAIR      50  39  66 E5        30.19S

$$

LMZ046-743>745-200600-
SOUTHERN LAKE MICHIGAN

STATION/POSITION TIME  TEMP    WIND        PRES    WAVE
                       AIR SEA DIR/SP/G            HT
                 (UTC) (F)     (DEG/KT/KT) (MB)    (FT)
BURNS HARBOR     0502   61     140/ 12/ 16 1021.7
MICHIGAN CITY    0440   56     140/ 10/ 11   N/A
5NW MICH CITY    0500   58 58  150/  6/ 10   N/A     1

$$

INZ004-005-014>016-021>024-200600-
NORTH CENTRAL INDIANA

CITY           SKY/WX    TMP DP  RH WIND       PRES   REMARKS
GOSHEN         FAIR      44  38  79 CALM      30.20S
LOGANSPORT +   FAIR      50  45  81 E3        30.21S
PERU/GRISSOM   FAIR      52  50  91 SE3       30.20S
SOUTH BEND     FAIR      45  40  82 CALM      30.20F
WARSAW +       FAIR      45  41  87 CALM      30.21S

$$

INZ006>009-017-018-025>027-200600-
NORTHEAST INDIANA

CITY           SKY/WX    TMP DP  RH WIND       PRES   REMARKS
AUBURN +       FAIR      45  39  81 CALM      30.22S
FORT WAYNE     FAIR      48  43  82 CALM      30.21F
HUNTINGTON +   FAIR      48  47  96 CALM      30.21S
KENDALLVILLE + FAIR      45  40  84 CALM      30.22R

$$

INZ028-029-035-036-043>045-051>053-200600-
WEST CENTRAL INDIANA

CITY           SKY/WX    TMP DP  RH WIND       PRES   REMARKS
CRAWFORDSVL +  FAIR      50  50 100 SE5       30.21R
GREENCASTLE +  FAIR      52  50  93 CALM      30.22S
LAFAYETTE      FAIR      53  51  93 CALM      30.19S
TERRE HAUTE    FAIR      52  49  89 CALM      30.21S

$$

INZ030>032-037>040-046>048-054>057-064-065-200600-
CENTRAL INDIANA

CITY           SKY/WX    TMP DP  RH WIND       PRES   REMARKS
CP ATTERBURY +   N/A     46  46 100 CALM      30.23S
FRANKFORT +    FAIR      52  49  89 CALM      30.22S
GREENWOOD *+   FAIR      52  50  92 CALM      30.23R
INDIANAPOLIS   FAIR      58  51  78 SW5       30.22S
-EAGLE CREEK   FAIR      54  50  86 CALM      30.21S
KOKOMO +       FAIR      49  47  93 E3        30.22S
MARION +       FAIR      50  46  87 CALM      30.22S FOG
MT COMFORT *+  FAIR      48  48 100 CALM      30.22S
SHELBYVILLE    FAIR      50  46  86 S3        30.22R
ZIONSVILLE +   FAIR      48  47  97 CALM      30.22S

$$

INZ033-034-041-042-049-050-058-059-200600-
EAST CENTRAL INDIANA

CITY           SKY/WX    TMP DP  RH WIND       PRES   REMARKS
MUNCIE         FAIR      49  46  90 CALM      30.22S
RICHMOND +     FAIR      50  48  93 SW3       30.24S

$$

INZ060-061-067>069-081>083-085>088-200600-
SOUTHWEST INDIANA

CITY           SKY/WX    TMP DP  RH WIND       PRES   REMARKS
EVANSVILLE     FAIR      54  51  90 CALM      30.22S
HUNTINGBURG +  FAIR      54  51  90 SE5       30.23S
WASHINGTON +   FAIR      53  49  87 SE5       30.21F

$$

INZ062-063-066-070>080-084-089>092-200600-
SOUTH CENTRAL AND SOUTHEAST INDIANA

CITY           SKY/WX    TMP DP  RH WIND       PRES   REMARKS
BEDFORD +      FAIR      54  48  82 CALM      30.22S
BLOOMINGTON    FAIR      52  47  83 CALM      30.22S
MADISON *+     FAIR      52  50  93 CALM      30.26S
NORTH VERNON + FAIR      48  46  93 CALM      30.24S
SEYMOUR +        N/A     48  48 100 CALM      30.23S FOG

$$





USA.gov is the U.S. government's official web portal to all federal, state and local government web resources and services.